sat.trackr.live / text

‹ back to catalog

STARLINK-5470

NORAD 54776 · 2022-175U

PAYLOAD ACTIVE UNKNOWN

§ Identity

Operator
Country
US
Launch date
2022-12-17
Launch site
AFETR
Launch vehicle
Mass (kg)
RCS (m²)

Purposes: comms

External: N2YO · Heavens-Above · Gunter

§ Orbital elements

Epoch: 2026-09-20T22:00:03.000096Z

Period
90.97 min
Inclination
53.1581°
Eccentricity
0.0001270
Mean motion
15.82860020 rev/d
Perigee alt
321.5 km
Apogee alt
323.2 km
Semi-major
6,700.5 km
B*
3.5697e-3
RAAN
229.7319°
Arg perigee
122.2889°
Mean anomaly
341.7766°
Rev number
585

§ Raw data

STARLINK-54701 54776U 22175U   26263.91670139  .00852833  00000+0  35697-2 0  99912 54776  53.1581 229.7319 0001270 122.2889 341.7766 15.82860020  5853

JSON: /api/v1/satellites/54776 · /tle

For live sub-satellite position, see the globe view (requires WebGL).

§ Visibility from observer

Set your observer location to see the next 7 days of passes ≥ 10°. The values pass through the URL so the page stays shareable.

No JS? Fill the form by hand. The geolocation button needs JavaScript.